Location: Auttagershofen
(48.1940°N, 10.0237°E)
Time: 09:33:41
(UTC+00:00)

NOAA 12 - Pass Details

Date: 18 January 2026
Orbit: 793 x 813 km, 98.6° (Epoch: 15 February)

Event Time Altitude Azimuth Distance (km) Brightness Sun altitude
Rises 05:00:49 0° 11° (N) 3,306 7.3 -20.0°
Reaches altitude 10° 05:03:11 10° 8° (N) 2,371 6.5 -19.6°
Maximum altitude 05:08:18 58° 290° (WNW) 922 4.0 -18.7°
Drops below altitude 10° 05:13:24 10° 212° (SSW) 2,359 6.3 -17.9°
Sets 05:15:45 0° 209° (SSW) 3,287 7.1 -17.5°
